Temp
18 18 18 18 19 19 19 19 19 19 20 20 20 21 21 21 21 21 21 21 21 22 22 22 22 22 22 22 23 23 23 23 23 22 21 23 24 24 25 25 25 24 23 23 23 23 23 23 23 24 23 23 23 23 23 23 24 23 23 22 22 22 23 24 26 25 25 26 26 26 26 26 26 26 26 25 26 26 26 26 25 25 26 26 27 26 25 23
18 17 18 18 18 19 19 19 19 19 20 20 20 20 21 21 21 21 21 21 22 22 22 22 22 22 22 22 23 23 23 23 22 22 23 24 23 24 25 25 25 24 24 23 23 23 23 23 23 23 23 23 23 23 23 23 23 23 23 22 22 23 24 25 25 25 25 25 26 26 26 26 26 25 26 26 25 25 25 25 25 25 26 26 26 24 24 22
18 18 18 19 19 19 19 19 19 19 20 20 20 20 20 20 21 21 21 21 21 22 22 22 22 22 22 22 23 23 23 22 23 23 24 25 24 24 25 25 25 24 24 24 23 24 24 24 24 23 23 23 23 23 23 23 23 23 23 22 23 24 24 25 25 26 25 25 26 26 25 25 26 25 26 25 25 25 25 25 25 25 25 26 26 24 22 21
18 17 17 19 20 19 19 19 19 19 19 20 20 20 20 20 20 21 21 21 21 22 22 22 22 22 22 22 23 23 23 23 24 25 25 25 24 24 25 25 25 24 24 23 23 24 24 24 24 24 23 23 23 23 22 23 23 23 22 22 24 24 24 25 26 26 25 25 25 25 25 25 25 25 25 25 24 24 24 25 25 26 25 25 26 25 21 19
18 17 17 18 19 19 18 19 19 19 19 19 19 20 20 20 20 21 21 21 21 21 21 21 21 21 22 22 22 23 23 23 25 25 25 25 25 24 24 24 24 24 24 23 23 24 24 24 23 24 24 23 23 23 23 23 23 23 23 23 24 24 24 25 26 26 25 25 25 25 25 25 25 25 25 25 24 24 25 25 25 26 26 25 25 25 23 20
17 16 16 18 19 18 18 18 18 18 18 19 19 19 19 19 20 20 20 20 20 21 21 21 21 21 21 22 22 22 23 24 25 25 25 25 24 24 24 24 24 24 23 23 23 24 24 24 23 23 23 23 23 23 24 24 23 23 23 23 24 24 24 24 25 25 24 24 25 25 25 25 24 24 24 24 24 24 25 25 25 25 25 24 24 24 25 24
15 15 16 17 18 17 17 17 17 18 18 18 18 19 19 19 19 20 20 20 20 20 20 20 20 20 21 21 21 21 22 23 25 25 24 24 24 24 24 24 24 23 23 22 23 23 23 23 23 23 23 23 23 23 24 24 23 23 23 24 24 24 24 24 24 24 23 23 24 24 24 24 24 24 24 24 24 24 24 24 25 24 23 24 24 24 25 26
14 15 15 16 16 16 17 17 17 17 17 18 18 18 19 19 19 19 20 20 20 20 20 20 20 20 21 21 21 21 21 22 24 24 24 24 24 24 23 23 23 23 22 22 23 23 23 23 23 23 23 23 23 23 23 24 24 23 23 24 24 24 24 24 23 23 23 23 23 24 24 24 24 24 23 24 24 24 24 24 24 24 23 24 24 25 25 25
13 15 15 15 16 16 16 17 17 17 17 17 18 18 18 18 19 19 19 19 20 20 20 20 19 19 20 20 20 21 21 22 23 23 24 24 23 23 23 23 23 22 22 22 22 22 23 23 24 23 23 23 23 23 23 23 23 24 23 23 23 23 23 23 23 23 23 23 23 23 23 23 23 23 23 24 24 25 24 24 24 24 24 24 24 25 25 25
13 15 15 15 15 16 16 16 16 16 16 17 17 17 18 18 19 19 19 19 19 19 20 20 19 19 19 20 20 21 22 23 23 23 23 23 23 23 23 23 22 22 22 22 22 22 22 23 23 23 23 23 23 23 23 23 22 23 23 22 23 23 22 23 23 23 23 23 23 22 23 23 23 23 23 24 25 25 24 24 24 24 25 25 25 25 25 25
13 14 15 15 15 15 15 15 15 16 16 17 17 17 18 18 18 19 19 19 19 19 20 19 19 19 19 19 20 21 22 22 22 23 22 22 22 22 22 22 22 22 22 22 22 22 22 23 22 22 23 23 22 22 23 22 22 22 22 22 23 22 22 22 22 23 22 22 23 22 22 23 22 23 23 25 25 25 24 24 24 24 24 25 25 25 24 23
14 14 15 15 15 15 15 15 15 16 16 16 17 17 18 18 18 19 19 19 19 19 19 19 19 19 18 18 20 21 22 22 22 22 21 21 22 22 22 22 21 21 21 21 21 21 22 22 23 23 23 22 21 22 22 22 22 22 22 22 22 22 22 22 22 23 22 23 24 23 22 22 23 23 24 25 25 24 23 24 24 24 24 24 24 25 25 22
13 14 14 14 14 14 14 15 15 16 16 16 17 17 18 18 18 18 19 19 19 19 19 19 19 18 18 19 20 21 22 21 21 21 21 21 21 21 22 21 21 21 21 21 21 21 21 22 23 22 22 22 21 22 22 22 22 22 22 21 21 20 21 23 23 23 23 22 24 24 21 22 24 24 24 25 24 23 24 24 25 25 24 24 24 25 24 18
13 14 14 14 14 14 14 15 15 16 16 16 17 17 18 18 18 18 18 19 19 19 18 18 18 17 18 21 21 21 21 21 20 21 20 20 20 21 21 21 21 21 21 21 21 21 21 22 22 22 21 22 21 21 21 21 22 22 21 21 21 20 21 23 23 23 23 22 23 24 21 22 25 25 26 26 25 24 25 25 25 25 24 24 24 24 20 15
13 13 14 14 14 14 15 15 15 16 16 16 17 17 18 18 18 18 18 18 18 18 18 17 17 17 18 20 21 21 20 20 20 20 20 20 20 20 20 20 20 20 20 20 20 21 21 22 22 21 21 22 21 21 20 20 21 21 21 20 20 20 21 23 23 23 24 23 22 23 22 22 24 25 26 27 25 25 25 25 24 23 24 24 21 19 15 14
13 13 14 14 14 14 15 15 15 15 16 16 17 17 17 17 17 17 18 18 18 18 17 16 16 16 19 20 20 20 20 20 20 20 20 20 20 20 20 20 20 20 20 20 20 21 21 21 21 20 21 21 21 20 19 19 20 20 20 20 20 20 20 22 24 24 24 23 23 22 22 22 23 24 26 26 25 25 25 24 23 23 23 20 17 15 14 13
13 13 13 14 14 15 15 15 15 15 16 16 16 17 17 17 16 16 17 17 16 16 16 16 16 17 19 20 20 21 20 19 19 19 19 20 20 20 20 19 19 19 20 20 20 20 20 21 20 20 20 20 20 20 19 19 19 20 20 20 20 20 20 21 23 24 24 23 23 22 22 22 23 24 25 25 25 24 24 23 23 23 20 16 14 14 13 12
13 13 13 13 14 14 15 15 15 15 16 16 16 17 16 16 16 16 16 16 15 16 16 16 16 18 20 20 20 21 20 19 19 19 19 20 19 20 20 19 19 19 19 19 19 19 20 20 20 20 20 19 19 19 19 19 20 20 20 20 20 20 21 21 22 23 24 23 23 22 22 22 22 22 23 24 24 23 23 23 23 21 17 15 14 13 12 12
13 13 13 13 13 14 14 14 15 15 16 16 16 16 16 16 15 16 15 15 16 18 19 18 18 20 21 21 20 19 19 19 19 19 19 19 19 19 20 20 19 19 19 19 19 19 19 19 19 19 19 19 19 19 19 20 20 20 20 20 20 20 20 21 22 23 24 23 22 22 22 22 22 22 23 23 23 22 22 22 21 18 15 14 13 12 12 11
13 13 13 12 13 14 14 14 15 15 15 16 16 16 17 17 17 17 16 15 16 19 20 19 19 20 21 21 19 18 18 19 18 18 19 19 19 19 19 20 19 19 19 19 19 18 19 19 18 19 19 20 20 20 19 20 20 20 20 20 20 19 19 21 22 23 23 22 22 22 22 21 21 22 23 23 23 22 22 22 19 16 14 13 12 12 11 11
13 13 12 12 13 13 14 14 15 15 15 16 16 16 17 17 18 18 17 16 17 17 18 19 19 20 21 20 19 19 19 19 18 18 18 19 19 19 19 19 19 18 18 19 19 18 19 18 18 19 20 21 20 20 19 20 20 20 19 19 19 19 19 20 21 22 22 21 21 22 21 20 21 22 22 22 21 20 19 19 16 14 13 12 12 11 11 10
13 12 12 12 13 13 14 14 15 15 15 16 16 16 15 15 16 16 16 17 17 16 17 18 18 19 20 20 19 20 20 19 18 17 18 18 18 19 19 18 18 19 19 18 18 18 18 18 19 19 19 20 20 19 19 20 20 19 19 19 19 19 19 20 21 21 21 20 21 21 20 20 21 22 22 21 18 16 15 15 13 13 12 11 11 10 10 10
13 13 12 12 12 13 14 14 14 15 15 16 16 15 14 14 15 15 15 16 16 17 17 18 18 19 19 19 19 19 19 19 19 18 17 18 18 18 19 18 18 19 19 18 18 18 17 18 19 19 18 19 19 19 20 19 19 19 19 19 19 19 19 19 20 20 20 20 20 20 20 20 21 21 20 17 16 14 13 13 12 12 11 10 10 10 9 9
13 13 13 12 12 13 14 14 15 15 15 15 15 15 15 15 14 14 15 16 16 17 18 17 18 19 19 18 18 19 19 19 19 18 17 18 18 18 18 19 18 18 18 18 18 18 18 19 20 19 19 19 19 19 19 19 19 19 19 19 19 19 19 19 19 19 20 20 19 20 20 20 21 21 19 16 15 15 13 12 11 11 10 10 9 9 9 8
13 13 12 12 12 13 13 14 14 15 15 15 15 15 14 14 14 14 15 16 16 17 17 17 18 18 18 18 18 19 19 18 18 17 17 18 19 18 19 19 19 18 18 19 18 17 18 20 20 20 20 19 19 19 19 19 19 19 19 19 19 19 19 19 19 19 19 19 19 19 18 19 20 22 20 17 15 14 13 12 11 10 10 10 9 9 8 8
13 13 13 12 12 13 13 14 14 15 15 14 14 15 14 14 14 14 15 16 16 18 18 17 18 17 17 17 17 18 19 18 16 16 17 17 18 18 19 19 19 19 19 19 19 18 19 20 20 20 20 20 19 19 19 19 19 18 19 18 18 19 19 19 19 18 18 18 19 19 18 17 18 21 22 18 15 14 12 11 11 10 9 9 8 8 8 7
12 13 13 13 13 12 13 14 14 14 15 14 15 15 14 14 14 14 15 16 17 19 18 17 17 18 17 17 17 18 18 17 16 16 17 17 17 18 18 18 19 19 19 19 18 19 20 19 19 19 20 20 19 20 20 19 19 18 18 17 18 19 18 18 18 18 18 17 17 18 18 16 16 19 20 18 16 14 12 11 10 9 9 8 8 7 7 7
12 12 13 13 13 12 13 14 14 14 15 15 15 14 14 14 14 15 16 17 18 20 19 17 17 17 17 16 17 18 17 17 17 17 16 16 17 17 17 18 18 18 19 19 18 19 19 19 19 19 19 19 19 20 19 19 19 18 17 17 18 18 18 18 17 17 17 16 16 17 17 16 16 18 18 18 17 15 12 11 10 9 9 8 7 7 6 6
12 12 13 13 12 12 13 13 13 14 14 15 14 14 14 14 14 16 16 16 19 20 18 17 17 16 17 17 17 18 17 17 17 16 16 17 16 17 17 17 17 18 18 18 19 19 18 18 18 19 19 19 19 19 18 19 19 17 16 17 18 18 17 17 17 16 16 15 16 17 17 16 17 19 18 17 18 16 12 11 10 9 8 7 7 6 6 6
13 13 13 13 12 12 12 12 13 14 14 14 14 14 14 14 15 16 16 16 18 19 18 17 17 17 17 17 17 18 17 17 16 16 16 17 16 16 17 16 17 18 18 17 18 18 17 17 17 18 19 19 19 17 16 17 18 16 17 18 18 17 17 16 16 16 16 15 17 17 17 17 17 19 18 17 18 16 12 11 9 8 8 7 6 6 5 5
13 13 13 13 12 13 12 12 13 14 14 14 14 14 15 15 15 15 15 17 18 18 18 17 17 17 17 17 18 18 17 17 16 16 17 16 16 16 16 16 17 17 17 17 17 16 17 17 18 18 18 18 18 17 15 15 16 17 17 17 18 17 16 16 16 16 15 16 18 17 16 16 16 19 19 17 16 15 13 11 9 8 7 6 6 5 5 5
12 12 13 13 12 13 13 13 14 14 14 14 14 15 15 15 15 15 16 18 18 18 18 18 17 17 17 18 18 18 17 17 16 16 17 16 16 16 16 17 18 17 17 17 17 17 17 17 17 18 17 17 18 17 16 15 16 17 17 16 16 16 16 16 16 16 16 17 18 17 17 16 16 19 18 15 12 13 13 11 9 7 6 6 6 5 5 5
12 12 12 12 12 12 12 13 14 13 13 13 14 15 15 14 14 15 16 18 18 18 18 18 18 18 18 18 18 18 17 17 17 17 17 16 16 16 16 17 18 18 18 17 17 18 18 17 16 17 17 17 18 17 17 17 16 16 17 17 16 16 16 16 16 16 16 17 17 17 16 16 18 17 14 11 9 9 10 8 7 7 6 6 5 5 5 5
11 11 11 11 12 12 12 13 13 13 13 13 14 14 14 14 15 16 16 17 18 18 17 18 17 18 18 18 18 18 18 18 17 17 17 16 16 16 17 16 17 18 18 17 17 17 18 17 17 17 17 17 17 17 18 17 16 15 16 16 17 17 17 16 17 16 16 18 17 16 16 17 18 15 9 8 8 7 7 7 6 6 6 6 5 5 5 5
11 11 11 11 12 12 12 13 13 12 13 13 14 14 13 14 15 15 16 17 18 18 17 17 17 17 17 17 18 18 18 18 17 17 17 16 16 17 17 18 17 17 17 17 17 17 17 18 17 16 16 16 17 17 17 17 16 15 15 16 17 18 18 17 17 17 16 16 16 16 17 16 15 11 8 8 8 7 7 6 6 6 6 6 6 5 5 5
11 11 11 11 11 11 12 12 12 12 13 13 13 13 14 15 16 16 17 17 18 18 17 16 17 17 16 17 17 18 18 18 17 17 16 16 17 17 18 19 18 18 18 18 17 17 17 17 16 16 16 16 16 17 17 17 18 16 15 17 16 16 18 17 16 16 16 15 15 17 17 15 13 11 9 9 8 7 7 6 6 6 6 6 6 5 5 5
10 10 10 10 11 11 11 12 12 12 12 13 13 13 14 15 16 17 17 17 17 17 17 16 17 16 16 16 17 17 17 17 17 16 16 16 17 17 18 18 17 17 18 18 18 18 17 17 16 16 17 16 15 16 17 16 17 17 16 17 16 15 17 17 15 15 15 14 15 17 17 15 15 13 10 8 8 7 7 6 6 6 6 6 6 5 5 5
10 10 10 10 11 11 11 11 11 11 12 12 13 14 14 14 15 16 17 17 17 17 17 16 17 16 16 16 16 16 16 16 16 16 16 17 17 18 18 17 16 16 17 18 18 17 17 17 16 16 16 16 15 16 17 15 15 16 16 16 16 16 16 16 15 14 14 14 14 16 16 15 16 15 10 9 9 7 6 7 6 6 6 6 6 6 5 5
10 10 11 11 11 11 11 11 11 11 12 13 13 13 14 14 15 16 16 16 16 16 16 16 16 16 16 16 16 16 16 16 16 16 16 17 17 17 17 16 16 16 16 18 18 17 16 16 16 15 15 16 16 16 17 16 15 15 15 16 16 16 15 15 15 15 14 14 14 15 15 16 15 13 11 11 9 7 7 7 7 7 7 6 7 6 6 5
9 10 11 10 10 11 11 11 11 11 12 13 13 13 13 14 15 15 15 15 15 15 15 15 15 15 15 15 15 15 15 15 15 15 15 16 17 16 15 15 15 15 16 17 16 16 16 16 15 15 14 15 16 15 16 16 16 15 15 15 15 15 15 14 14 15 14 14 14 14 14 15 13 10 10 11 9 7 8 8 8 7 7 7 7 6 6 5
9 10 10 9 9 10 10 11 11 12 12 13 13 13 13 14 14 14 14 15 14 13 13 14 14 15 15 14 14 14 14 14 14 14 15 15 16 16 14 13 14 15 15 16 16 15 15 15 14 15 14 15 16 15 15 15 15 15 15 15 14 14 14 13 13 14 15 14 14 13 13 14 12 9 9 10 8 8 8 8 9 8 8 7 6 6 6 5
9 10 10 8 8 9 10 11 12 12 12 12 13 14 14 13 14 14 14 14 13 13 13 13 14 14 14 14 14 14 14 14 14 14 14 15 15 15 13 12 13 14 15 15 14 13 13 14 13 14 14 14 15 14 14 14 15 15 14 14 14 13 13 12 12 13 14 13 13 12 12 13 10 8 9 9 9 9 8 9 10 9 7 7 6 5 5 5
9 9 9 8 8 9 10 11 11 11 11 12 13 14 14 13 13 14 14 13 13 13 13 13 13 13 14 14 14 14 14 14 14 14 15 15 14 12 12 12 13 14 14 14 13 12 13 13 13 13 13 13 13 13 13 13 14 14 13 13 13 13 12 12 12 12 12 12 12 12 12 12 10 8 9 8 8 9 8 8 10 8 7 6 5 5 4 4
9 9 8 8 8 9 10 11 11 11 11 12 13 13 13 13 13 13 13 13 14 13 13 13 13 13 14 14 14 14 14 14 14 14 14 14 13 11 10 12 13 13 13 13 13 13 13 12 12 12 12 12 13 12 12 12 12 12 12 12 12 12 11 11 11 11 10 11 12 11 11 12 10 8 9 9 8 8 8 7 8 8 7 6 5 5 5 5
9 9 8 8 8 8 10 11 11 11 11 11 11 12 12 13 13 14 14 13 14 14 13 13 14 14 14 14 13 14 14 14 14 13 13 12 11 10 10 11 12 12 11 11 12 12 12 12 11 11 11 11 12 12 11 11 11 11 11 11 11 11 11 11 11 10 10 10 11 10 10 11 10 8 8 9 8 8 8 7 7 8 7 6 5 5 5 5
9 9 8 8 8 8 9 9 10 10 11 11 11 11 11 12 13 14 14 13 14 14 13 14 14 13 13 13 13 13 13 13 13 13 13 11 10 9 10 10 11 11 10 10 12 12 12 11 11 12 11 11 12 12 11 10 11 11 11 11 11 11 11 11 10 10 10 10 9 10 10 10 10 10 9 9 9 8 8 8 7 7 6 5 5 5 5 5
7 9 9 8 8 8 8 9 9 9 10 11 11 11 12 11 12 13 13 13 13 13 13 13 13 13 13 13 12 12 12 12 12 12 12 11 9 9 9 9 10 10 10 11 11 11 11 10 10 11 11 11 11 11 11 10 10 10 10 10 10 10 10 9 9 9 10 9 9 10 11 10 10 11 10 9 9 9 9 9 8 7 6 5 5 5 5 6
7 8 9 9 9 9 9 9 9 9 10 10 10 11 12 11 11 12 12 12 13 13 12 12 12 12 12 13 12 12 12 12 11 12 12 11 9 9 9 9 9 9 10 10 11 11 10 10 10 10 10 10 10 10 10 10 9 10 10 9 10 9 9 9 8 9 10 9 9 10 10 9 10 10 10 9 9 10 10 9 8 6 5 5 5 5 5 5
7 7 7 8 9 9 9 9 9 9 9 9 9 11 11 11 11 12 12 12 12 12 12 11 12 12 12 12 12 11 11 11 11 11 11 10 9 9 9 9 9 9 9 10 10 10 10 9 9 9 9 9 9 9 9 9 9 9 9 9 9 9 9 8 8 9 9 8 9 10 9 9 9 9 10 9 9 8 8 7 6 6 5 5 5 5 6 6
6 6 6 7 7 8 9 9 9 9 9 9 9 10 10 10 11 12 12 11 11 11 11 11 11 11 11 11 11 11 11 11 11 11 10 9 10 9 9 9 9 8 8 9 9 9 9 8 8 8 8 8 8 8 9 9 9 8 8 8 8 8 8 8 8 8 8 8 8 9 8 8 9 9 9 8 7 7 6 6 6 6 5 5 5 6 6 6
5 6 6 5 6 8 8 9 9 8 9 9 9 9 10 10 11 11 11 10 10 11 11 11 11 10 10 10 10 10 10 10 11 10 9 9 10 9 9 9 9 8 8 8 8 8 8 8 7 8 7 7 7 7 8 9 8 7 7 7 7 7 7 8 8 8 8 8 8 7 7 8 9 9 8 7 6 6 6 6 6 5 5 6 6 6 6 6
5 6 6 5 5 7 8 8 8 8 9 9 9 9 10 10 10 11 11 9 9 9 10 10 10 10 9 9 9 9 9 9 9 8 8 8 8 8 8 8 8 8 8 7 7 8 8 7 8 8 7 6 7 6 7 8 6 5 7 7 7 7 7 7 7 8 8 8 7 7 7 8 9 9 8 7 6 6 6 5 5 5 5 6 6 6 6 6
Height
824 824 823 823 823 823 823 823 822 822 822 822 822 822 821 822 821 821 821 820 820 820 820 819 819 819 818 817 816 815 814 813 811 811 809 808 808 809 809 809 809 809 810 810 811 812 812 813 813 813 814 815 816 817 817 816 816 821 829 837 839 837 833 823 818 818 817 815 812 809 807 809 811 807 802 800 801 802 800 797 795 793 790 788 785 785 786 787
823 823 823 823 823 823 822 822 822 822 822 822 822 822 821 821 821 821 821 820 820 820 820 819 819 819 818 817 816 814 813 811 810 809 807 805 806 808 809 809 809 809 809 810 810 811 812 813 813 813 815 817 818 817 819 817 818 824 831 837 836 831 822 815 814 813 813 814 811 808 807 807 808 807 802 804 806 803 803 798 794 794 791 787 784 785 787 787
823 823 823 822 822 822 822 822 822 821 821 821 821 821 821 821 821 820 820 820 820 819 819 819 819 818 818 817 815 815 813 811 810 808 806 805 806 807 809 809 809 809 809 810 810 811 812 812 812 813 816 819 819 819 821 820 820 823 828 837 831 822 818 812 811 811 810 811 810 809 807 806 806 804 802 805 806 804 804 799 796 794 790 787 784 784 786 786
823 823 822 822 822 822 822 821 821 821 821 821 821 821 821 820 820 820 819 820 819 819 819 818 818 818 818 816 816 815 812 813 812 808 807 806 807 808 809 809 809 809 809 810 810 810 811 811 812 813 817 821 819 819 822 820 821 822 826 831 824 818 819 813 809 809 808 808 809 809 808 807 804 802 803 805 807 805 801 797 795 791 786 786 784 783 785 786
823 822 822 822 822 821 821 821 821 821 821 820 820 820 820 820 819 819 819 819 819 819 818 818 818 817 818 816 816 814 814 821 814 806 808 807 807 809 809 809 809 809 809 810 810 810 811 810 811 814 818 821 821 821 821 817 817 821 821 821 817 816 818 812 808 809 808 808 808 809 809 806 803 802 802 804 807 802 794 791 790 786 782 782 782 782 783 784
823 822 822 822 821 821 821 821 821 820 820 820 820 820 819 819 819 819 818 818 818 818 818 818 817 817 817 816 816 814 818 823 812 806 809 807 808 809 808 809 809 809 809 810 810 810 811 811 814 817 819 820 822 821 819 814 815 821 820 816 814 815 815 811 808 809 808 810 809 808 806 803 805 804 800 802 802 792 787 786 785 782 779 779 780 781 780 780
822 822 822 821 821 821 821 821 820 820 820 819 819 819 819 818 818 818 817 817 817 817 817 816 816 816 816 816 816 815 819 817 807 807 808 807 808 808 808 808 808 809 809 810 810 811 812 814 816 818 820 822 822 820 817 814 815 820 820 815 813 812 812 810 808 809 809 810 808 805 804 804 807 804 798 798 794 786 783 783 782 780 777 778 779 780 779 777
822 821 821 821 821 820 820 820 819 819 819 818 818 818 818 817 817 817 816 816 815 815 815 815 816 815 816 816 815 818 818 812 805 807 807 806 808 807 808 808 808 809 808 810 810 811 813 815 817 817 821 822 819 818 816 816 816 817 818 814 812 811 810 809 808 808 808 807 805 805 804 804 804 802 799 795 789 782 780 780 780 779 777 778 778 777 776 775
821 821 820 820 820 819 819 819 818 818 818 818 817 817 817 816 816 815 815 815 814 814 814 814 815 814 815 815 816 820 815 806 805 806 805 806 807 806 807 807 808 808 808 810 809 811 813 815 815 815 820 820 818 818 816 820 820 815 815 815 813 813 811 809 809 807 806 804 803 806 804 801 801 802 798 790 785 780 778 779 779 779 778 777 776 774 773 773
821 820 820 819 819 819 818 818 818 817 817 817 817 816 816 815 815 814 814 814 813 813 813 814 814 813 815 813 817 820 809 803 805 805 805 806 805 806 806 806 807 807 808 809 809 810 811 813 812 812 815 817 818 818 817 820 820 815 815 815 813 814 810 809 809 804 804 803 801 806 804 798 799 803 799 786 780 779 778 780 778 779 778 775 774 772 772 772
820 819 819 818 818 818 817 818 817 817 817 816 816 816 815 815 814 814 813 812 812 812 812 812 812 813 813 813 817 816 805 803 805 803 805 805 805 806 805 806 806 807 808 808 809 809 810 810 809 811 815 816 818 818 816 816 816 814 815 816 813 814 810 807 809 803 802 803 798 802 804 799 800 803 797 784 778 778 780 780 777 778 777 773 773 772 772 772
819 818 818 818 818 817 817 817 817 817 816 816 816 815 815 814 813 813 812 811 811 810 811 811 812 812 812 814 813 808 803 804 804 803 804 804 805 806 805 806 806 807 807 807 809 808 809 809 808 813 815 816 819 820 817 814 815 814 815 819 816 815 813 805 804 801 801 802 794 798 808 805 801 797 789 781 778 779 781 780 777 776 774 773 774 773 773 774
818 818 817 817 817 817 817 817 817 817 816 815 815 814 814 813 812 812 810 810 809 809 809 810 810 811 812 812 806 802 802 803 803 803 804 804 805 805 805 806 806 807 807 807 808 808 809 808 808 812 813 816 820 818 815 813 815 815 816 820 820 823 819 802 799 799 799 800 792 797 815 811 798 791 785 781 780 781 781 779 776 774 773 774 775 774 776 780
817 817 817 817 817 817 817 816 816 816 815 815 814 814 813 812 812 811 810 809 808 808 808 809 810 811 812 808 801 801 802 802 803 803 803 804 804 804 805 805 806 806 807 807 808 808 808 808 808 811 812 815 816 814 817 817 817 818 819 822 824 831 822 800 796 799 798 799 791 796 814 810 794 787 782 778 779 780 780 776 773 773 774 775 775 776 782 786
816 816 816 816 816 816 816 816 816 815 815 814 813 813 812 811 811 810 809 809 808 808 808 809 809 810 812 807 800 801 801 801 802 802 802 803 803 804 804 805 806 806 807 807 807 808 808 808 810 813 814 813 814 819 824 824 820 819 825 828 827 829 822 803 796 796 797 797 793 798 810 807 795 788 781 777 777 778 779 774 772 776 777 777 779 783 788 790
816 816 816 816 816 816 816 815 815 815 814 813 813 812 811 811 810 810 809 808 808 808 808 810 810 811 812 806 801 801 801 801 801 801 802 803 803 803 804 805 805 806 807 807 807 808 808 809 811 814 815 815 818 824 829 832 828 823 826 830 826 825 824 812 798 792 793 795 795 799 805 803 795 787 781 778 776 777 777 773 774 778 779 782 788 790 792 792
815 815 815 815 815 815 815 815 815 814 813 813 812 811 810 810 810 810 809 809 809 809 809 810 810 811 809 803 801 801 800 800 800 801 802 802 803 803 804 805 805 806 807 807 808 808 809 811 813 815 816 818 820 824 834 840 835 827 826 828 824 821 821 817 805 794 792 795 797 799 802 800 792 786 783 778 776 778 777 774 776 780 784 788 792 793 794 795
815 815 815 815 815 815 815 814 814 813 813 812 811 810 809 809 809 809 809 809 809 809 811 810 811 814 809 801 801 800 798 799 800 801 801 802 803 803 804 805 805 807 808 809 810 810 812 813 816 819 820 822 822 826 835 835 828 825 824 825 823 819 818 817 809 797 792 795 798 800 802 799 793 789 786 779 777 779 778 777 779 783 789 793 794 796 797 797
814 814 815 814 814 814 814 813 813 813 812 811 810 809 808 808 808 809 809 810 810 808 809 808 808 810 806 799 798 798 798 799 799 800 801 801 803 803 804 805 805 807 811 814 813 812 814 817 821 825 825 823 821 822 824 820 818 819 819 821 823 821 818 813 806 797 793 798 801 800 800 798 795 791 785 778 775 779 780 779 783 788 793 795 796 798 799 800
813 814 814 814 814 813 813 813 813 812 811 810 809 808 807 808 809 809 809 809 807 803 802 803 802 801 799 796 796 798 798 799 800 800 800 801 802 803 805 805 807 810 813 814 815 813 813 820 826 824 821 817 814 813 813 813 814 816 818 821 821 822 820 811 804 797 794 802 802 797 799 799 796 791 783 775 774 778 779 781 786 793 797 798 800 801 801 803
812 813 813 813 813 813 813 812 812 812 811 810 809 808 808 810 811 811 809 806 801 799 799 798 798 797 795 794 795 795 797 799 800 800 800 801 801 804 806 807 812 815 814 813 814 813 815 823 823 816 811 808 807 809 811 813 814 816 819 821 821 822 818 809 804 798 796 804 804 797 801 801 796 790 780 774 779 784 783 786 793 797 800 802 803 804 804 805
811 812 812 813 812 812 812 811 811 811 810 810 809 808 809 810 810 810 810 808 801 796 797 795 794 795 792 792 793 793 795 799 801 801 800 800 802 805 806 808 814 813 811 813 816 818 823 824 816 809 808 807 807 809 811 812 813 816 818 821 822 819 815 810 804 800 800 805 805 801 804 803 795 787 780 780 789 796 793 793 799 801 803 805 806 807 807 807
810 810 812 812 811 812 811 811 811 809 810 809 808 809 809 809 809 809 810 812 804 794 793 793 793 792 791 792 792 792 796 798 800 800 798 800 803 804 805 808 812 811 810 814 817 822 826 820 807 805 808 810 811 810 810 812 813 815 817 820 820 816 817 817 809 804 803 804 806 804 803 802 794 786 789 794 795 799 801 800 803 805 806 808 809 809 809 809
809 809 811 811 811 811 810 810 809 809 809 808 809 809 809 809 809 810 810 810 806 795 790 790 789 790 790 791 790 792 796 795 796 797 797 799 801 802 803 805 810 812 811 810 812 816 815 807 800 802 807 810 812 810 810 814 816 815 814 816 817 814 815 818 814 809 805 804 804 804 806 803 792 788 796 802 798 800 804 804 806 808 808 810 810 811 812 812
807 809 809 810 811 810 810 810 808 809 809 808 809 808 809 810 808 810 809 810 809 797 789 789 789 790 789 790 791 791 793 795 795 796 796 797 798 801 801 800 805 811 809 806 810 814 810 801 798 801 805 807 811 811 809 812 816 816 811 810 811 811 812 813 813 812 812 813 807 808 819 812 794 787 791 800 803 805 808 808 810 812 812 812 812 813 815 815
806 807 808 809 809 809 809 809 807 808 808 808 808 807 809 809 808 810 810 814 813 796 789 791 790 790 790 790 791 790 796 798 795 795 796 797 797 798 801 800 801 806 804 803 807 808 803 798 797 800 803 805 809 809 806 807 816 819 811 807 809 810 811 812 812 815 819 820 810 810 824 822 806 791 786 795 806 808 811 813 813 815 816 816 816 817 818 818
804 806 807 808 808 809 809 808 807 808 807 807 806 807 809 807 809 810 811 822 813 790 788 793 790 790 790 791 790 792 799 799 796 797 796 798 798 797 803 803 801 802 799 802 809 804 797 799 800 801 803 805 808 807 802 804 814 817 810 808 809 808 811 812 814 818 818 819 817 812 817 824 819 802 788 793 804 809 814 816 817 819 819 819 820 820 821 821
803 804 805 806 806 807 807 807 808 806 806 806 805 807 807 806 810 808 816 828 808 783 786 791 789 790 789 790 791 793 798 796 797 800 797 798 799 799 804 804 803 804 798 803 812 803 797 800 800 800 804 808 806 802 800 803 809 811 808 809 809 809 813 813 816 820 819 823 825 816 815 823 819 801 792 795 798 806 814 816 819 821 821 822 822 823 823 822
800 802 803 804 805 806 806 807 807 806 806 805 805 806 806 807 809 809 822 827 798 780 787 789 789 791 790 792 793 793 796 795 798 800 797 798 799 800 804 804 804 804 800 802 806 801 799 801 798 799 804 805 800 800 801 802 805 808 809 809 808 810 812 813 818 821 822 828 825 815 814 821 812 793 794 800 795 800 812 816 820 822 823 824 823 824 825 824
798 799 801 803 803 804 805 805 805 805 805 804 805 805 805 807 810 818 830 819 794 786 789 788 791 792 791 795 795 794 795 796 797 799 799 799 799 800 802 802 803 804 804 805 804 802 801 801 800 798 798 797 797 803 807 805 805 807 809 809 810 813 813 817 820 820 827 828 817 809 809 815 813 795 791 796 789 792 806 815 820 824 825 827 826 826 828 827
794 796 798 800 801 801 802 802 802 803 805 804 805 804 805 809 815 825 824 804 793 793 789 790 793 792 792 795 795 795 795 797 798 799 800 801 802 804 804 804 805 807 810 808 806 806 804 802 799 795 794 795 797 804 809 809 807 807 809 811 814 816 817 821 823 824 831 823 807 805 807 813 816 797 785 790 789 789 798 807 818 825 828 830 830 829 830 829
791 793 795 797 798 798 800 799 799 802 803 804 805 803 808 816 820 821 811 796 795 794 788 790 792 790 792 793 793 795 796 797 798 798 800 804 805 805 804 803 803 808 812 809 806 806 804 802 799 795 794 796 798 805 810 811 809 808 810 816 823 826 824 825 825 826 826 815 803 803 805 811 809 791 784 796 802 800 800 806 817 824 829 831 831 831 832 831
789 791 792 794 795 797 798 798 798 800 802 804 805 804 811 821 818 809 803 796 793 789 785 787 788 788 791 793 793 793 795 796 796 797 798 801 805 804 802 800 798 801 806 808 808 805 802 801 800 799 796 794 796 804 808 808 810 811 811 815 823 827 829 828 824 824 821 809 802 802 805 807 797 791 800 810 814 813 810 814 821 824 828 830 831 832 832 831
788 789 791 792 794 795 796 798 798 799 801 803 806 808 814 817 808 799 797 792 787 785 786 787 788 789 791 792 791 789 793 795 794 795 796 800 805 804 800 799 798 798 800 806 807 805 807 804 798 797 794 792 794 796 797 800 807 811 808 810 813 813 819 822 817 818 816 807 803 805 806 799 790 800 817 820 819 819 818 821 824 825 828 829 830 832 831 831
787 789 790 791 793 794 795 797 797 799 801 803 807 812 812 806 800 797 795 789 785 786 788 788 788 792 793 792 789 785 788 793 792 794 797 798 801 800 795 793 794 795 799 805 805 804 808 802 793 793 793 791 794 793 792 798 805 810 809 809 809 803 804 811 811 810 813 813 809 804 800 796 801 815 823 821 821 822 822 824 826 828 830 829 830 832 831 831
787 789 789 790 791 792 794 796 796 798 800 804 810 810 803 795 792 791 787 782 782 784 789 792 791 795 798 794 791 787 786 789 793 796 798 797 796 794 790 785 786 788 792 798 800 801 805 801 794 795 794 792 794 793 792 796 800 806 809 806 805 802 799 808 813 809 813 820 811 797 794 800 808 817 821 822 824 825 826 827 827 829 830 830 830 831 831 831
787 788 789 789 790 791 793 795 796 798 800 804 806 801 794 790 786 784 781 780 781 781 787 794 791 792 797 795 793 790 788 791 794 796 798 797 793 788 786 784 783 784 784 787 792 794 799 801 795 793 792 792 795 793 792 795 796 801 806 801 800 804 801 807 817 816 818 823 811 795 795 800 799 806 819 824 823 826 828 828 829 830 830 829 830 830 830 831
785 787 788 788 788 790 792 794 795 797 800 802 799 793 791 789 783 780 779 779 780 782 787 792 788 787 792 794 793 791 792 795 795 797 798 795 789 783 782 785 786 785 782 782 788 791 795 801 798 794 794 794 793 795 796 797 797 799 801 798 800 808 809 809 818 821 821 822 813 798 796 796 790 797 814 819 819 825 829 828 829 828 828 828 828 829 829 830
785 788 787 785 787 789 791 793 794 796 798 797 795 793 789 787 782 780 779 779 781 785 788 788 786 788 790 791 792 791 793 794 794 797 797 793 788 783 782 786 787 787 783 781 787 790 793 802 803 797 796 795 794 797 799 798 798 799 800 800 802 807 810 810 812 814 815 817 814 806 798 792 791 799 807 809 815 824 826 826 827 826 826 826 825 827 828 829
785 788 786 784 786 788 790 793 793 794 793 790 790 791 788 785 783 780 780 781 783 787 789 789 788 790 790 791 793 792 793 794 794 797 796 791 789 788 788 789 787 788 786 783 788 793 794 801 805 801 799 799 797 798 799 797 799 801 802 805 806 806 808 810 809 805 809 813 812 810 803 790 795 810 808 804 813 821 822 822 824 824 824 824 824 825 826 828
786 788 786 784 787 787 790 793 791 790 789 786 786 788 786 784 782 782 781 782 785 788 789 790 790 789 789 791 793 793 794 795 796 798 797 792 790 791 793 794 791 789 789 787 790 795 796 800 804 803 801 800 797 796 797 798 799 802 804 806 807 808 810 816 814 804 802 808 806 808 805 793 799 813 810 808 815 818 819 819 819 821 821 822 823 824 825 827
787 788 785 785 787 787 789 790 788 788 787 784 783 783 782 782 782 782 782 783 787 788 790 791 789 788 788 788 790 792 792 794 795 796 795 791 790 791 793 796 793 789 790 793 796 799 800 803 805 804 802 801 798 797 798 798 798 800 805 805 806 810 812 817 819 808 804 807 806 810 810 802 806 814 811 812 814 813 817 816 813 817 820 820 822 824 826 828
787 787 786 786 787 786 789 790 788 788 786 781 779 778 778 780 781 781 781 783 785 786 789 790 787 787 787 786 788 789 788 791 790 789 789 788 790 796 797 795 793 791 792 796 799 800 800 803 807 805 801 799 799 800 800 800 799 802 806 807 807 810 811 813 815 813 815 812 808 812 810 800 806 814 811 812 814 813 817 815 812 816 819 820 823 824 826 827
785 786 787 787 786 786 787 785 784 786 785 781 780 779 777 777 778 779 780 781 781 782 786 785 783 784 783 783 786 784 785 790 788 785 786 787 792 799 799 796 793 793 795 795 796 798 801 805 811 813 812 809 804 804 805 804 804 808 810 810 810 811 813 816 816 818 820 813 808 815 810 797 805 815 812 813 815 815 816 816 815 815 816 819 823 824 825 827
784 785 786 786 786 785 783 779 779 781 781 782 783 781 779 777 773 774 776 777 776 778 781 780 779 780 780 781 784 782 783 786 787 787 788 792 799 802 801 799 795 795 799 798 795 797 801 805 809 814 820 818 808 805 809 810 809 811 810 809 810 811 812 815 817 820 819 813 814 819 812 802 807 815 815 814 815 815 815 815 816 815 816 819 821 823 825 826
783 783 784 786 786 784 781 779 780 780 779 782 784 780 780 778 772 769 772 774 774 774 777 777 776 778 779 780 783 785 784 785 787 788 789 795 803 804 802 802 799 798 800 799 796 798 803 807 806 806 809 808 804 804 810 814 814 813 811 810 811 813 813 814 819 821 819 819 819 813 807 807 805 806 811 813 813 814 812 812 815 815 817 819 821 822 823 824
781 778 777 780 783 782 781 780 781 781 779 780 780 775 774 776 774 771 771 771 771 773 777 777 775 777 779 780 784 786 785 785 787 787 789 795 804 806 804 802 801 801 800 799 798 800 806 810 807 807 807 804 805 808 810 814 817 815 814 813 811 813 815 817 821 819 816 822 819 803 802 810 805 799 804 808 808 808 807 807 810 812 815 818 819 821 822 823
779 774 771 771 774 775 776 775 777 779 779 779 777 771 769 772 773 771 770 771 770 771 776 778 775 775 777 778 783 786 785 787 789 787 789 795 802 806 805 804 804 803 801 802 801 802 808 811 808 810 812 807 808 812 812 813 815 814 814 813 811 811 814 818 820 816 814 819 814 802 803 808 803 799 801 804 804 804 802 803 807 811 815 817 818 820 821 822
776 774 771 769 770 769 768 768 773 777 777 779 778 772 769 771 771 768 768 771 772 770 772 775 775 775 776 776 781 784 784 787 789 789 791 796 801 802 803 805 806 805 805 804 804 805 810 813 811 812 813 811 812 816 815 815 815 814 813 811 809 809 811 815 816 812 812 813 807 804 806 804 799 799 799 800 803 804 806 808 809 811 814 816 817 819 819 820
775 774 773 772 771 769 767 767 771 775 776 777 777 772 771 772 769 767 766 769 772 771 770 773 774 776 778 777 780 783 782 782 783 787 792 796 797 799 801 802 804 807 808 807 808 809 812 816 817 815 817 817 816 818 817 815 816 816 814 810 809 811 812 812 812 811 812 812 807 807 810 805 798 799 801 802 805 807 808 810 810 811 814 815 816 817 817 818
776 774 774 776 774 769 768 768 769 773 774 774 773 771 772 772 768 767 768 769 771 770 768 770 773 778 781 780 780 782 784 784 784 787 792 794 795 798 800 801 803 807 810 810 811 810 812 818 818 817 822 821 819 823 820 813 818 822 816 810 809 813 812 808 807 807 807 808 808 810 811 805 798 799 801 804 806 807 808 810 811 813 814 814 815 815 816 817
775 774 774 778 777 770 767 767 769 771 769 767 769 769 769 770 767 766 769 772 773 772 770 770 772 777 781 782 782 784 787 788 789 792 795 795 798 800 801 802 803 805 808 811 813 812 813 817 816 818 826 825 824 827 822 820 831 828 811 802 804 806 807 806 805 803 800 803 808 809 805 800 798 798 800 804 807 807 808 810 811 812 812 812 813 813 814 815
Wind_Speed
4 3 3 3 3 3 3 3 3 4 4 4 4 4 5 5 5 5 6 6 7 8 8 9 10 10 11 12 13 14 16 17 17 13 10 10 8 6 6 6 4 2 4 6 6 4 3 2 4 4 3 1 1 0 1 0 2 4 3 2 1 3 3 4 2 2 1 3 4 4 1 5 1 4 2 3 3 3 7 7 5 5 7 12 19 15 7 13
4 4 4 4 4 4 4 4 4 4 4 4 5 5 5 5 6 6 6 6 7 8 8 9 10 10 11 11 13 14 17 18 15 12 11 8 4 4 5 4 3 1 5 8 7 6 5 2 5 5 4 1 1 1 1 1 2 3 3 2 3 5 5 4 3 5 3 3 5 4 3 4 1 4 1 2 7 5 7 9 5 6 9 13 17 7 8 15
4 4 5 5 4 4 4 4 4 4 5 5 5 5 6 6 6 6 6 7 7 8 8 9 9 9 10 10 11 13 16 15 10 7 5 5 3 2 2 1 1 1 5 8 6 5 5 4 5 6 3 0 2 1 1 1 0 2 3 2 6 6 5 6 6 6 4 3 3 4 4 4 5 4 1 3 8 7 7 9 6 10 10 9 10 2 11 15
4 4 5 5 4 4 4 4 4 5 5 5 5 5 6 6 7 7 7 7 7 8 8 8 8 8 8 9 9 11 12 8 3 3 3 7 6 3 2 1 2 3 6 7 4 6 6 6 3 6 3 1 3 2 2 3 2 1 4 5 7 4 5 7 7 8 6 3 3 4 5 7 6 2 2 4 7 7 7 8 8 14 14 9 8 5 8 13
4 4 5 5 4 4 4 4 4 5 5 5 6 6 7 7 8 8 8 8 8 8 8 8 8 8 7 8 7 8 8 5 2 2 4 5 5 4 2 2 2 4 8 5 3 4 4 5 2 2 2 1 3 3 3 6 4 2 4 7 7 4 4 7 6 7 6 5 5 5 6 6 4 4 4 4 7 8 7 8 10 13 14 10 9 9 5 9
4 5 5 5 4 4 4 5 5 5 5 6 7 7 8 9 9 9 9 10 10 10 9 9 8 7 6 6 5 4 3 0 3 2 2 3 4 2 2 1 1 4 9 5 2 2 1 2 3 1 1 1 2 2 6 5 5 3 5 5 7 6 5 6 5 6 6 6 6 5 4 3 5 8 5 5 10 13 10 10 11 12 15 14 9 8 8 8
4 5 5 5 4 3 4 4 4 5 6 7 7 8 9 10 10 11 11 11 11 11 10 9 8 7 6 3 3 2 2 4 8 7 8 6 3 1 2 2 1 6 9 5 2 2 1 0 0 3 1 2 4 5 6 4 4 5 5 5 7 7 5 6 6 6 6 6 7 5 5 3 5 8 3 5 13 15 13 10 11 14 15 14 9 7 10 11
4 4 3 4 4 3 3 3 3 4 6 6 7 8 9 10 11 11 11 12 12 12 11 9 8 6 4 1 0 3 1 7 10 8 8 7 4 4 3 3 2 7 8 6 5 2 2 2 3 3 0 3 3 3 5 5 1 5 5 4 3 4 5 7 7 8 8 7 6 7 10 8 8 6 6 12 16 16 15 10 10 13 13 11 9 10 10 10
5 4 3 3 4 3 3 3 3 4 5 6 7 8 9 10 10 11 12 12 12 12 11 8 7 4 1 1 3 2 4 7 9 8 6 6 4 3 3 2 4 8 6 6 7 3 1 3 4 3 2 3 2 4 4 4 3 3 3 3 4 5 6 7 7 10 10 8 6 7 13 11 6 5 8 13 16 15 12 9 9 9 11 10 9 11 10 9
7 5 4 3 3 3 2 2 3 4 5 6 7 8 9 10 11 12 12 13 12 12 11 7 5 3 3 1 5 0 5 5 6 7 5 3 3 3 4 3 4 7 6 4 6 4 2 2 3 3 3 2 2 4 4 1 3 3 5 6 6 7 8 6 7 13 11 9 9 8 13 14 4 3 6 10 12 12 9 9 9 6 9 11 8 9 8 7
7 5 4 3 2 2 1 2 3 4 5 6 7 8 9 10 11 12 12 12 12 11 10 6 4 3 5 4 4 3 5 4 5 3 2 2 3 4 4 4 3 6 7 3 3 2 1 1 1 2 1 1 2 5 5 2 3 3 4 8 9 8 10 9 9 14 9 5 8 9 11 12 1 5 9 13 13 10 9 11 11 8 9 10 9 8 5 6
7 4 4 2 1 1 2 2 3 4 6 6 7 8 9 10 10 11 11 11 11 10 8 4 4 6 6 3 4 8 6 5 4 2 2 3 2 2 4 5 4 6 7 3 0 4 4 2 5 3 2 1 2 4 3 2 3 4 3 5 10 7 9 13 10 12 7 3 5 8 4 8 3 8 12 14 13 9 9 11 12 10 9 8 7 6 6 7
6 4 3 2 0 2 3 3 3 5 6 7 8 8 9 10 10 10 10 9 9 8 6 2 6 9 5 0 6 11 12 10 6 3 3 3 3 3 5 7 6 6 6 4 2 5 4 3 5 3 2 2 1 3 0 1 3 5 3 0 7 6 6 12 7 7 6 3 5 8 1 6 8 11 12 12 10 7 8 9 9 9 7 5 5 6 6 10
6 3 2 0 1 2 3 3 4 6 7 8 8 9 10 10 9 9 9 9 8 6 3 3 8 9 4 3 4 6 12 12 8 6 5 4 3 3 6 8 7 6 5 3 2 3 4 4 5 2 0 2 2 3 4 4 2 4 3 1 3 2 6 10 6 5 4 3 4 8 3 6 9 11 11 10 8 6 7 10 11 8 6 6 6 6 7 12
5 2 0 1 1 1 2 3 4 6 7 8 8 9 11 10 8 9 9 8 5 3 1 7 10 7 1 5 5 3 7 7 7 7 5 4 4 3 4 6 6 5 4 3 1 1 3 4 5 2 2 2 0 2 4 4 3 2 1 3 2 3 5 10 8 6 4 3 1 5 4 5 8 10 11 10 8 7 8 12 12 7 7 7 6 8 9 9
5 2 2 2 1 1 1 2 4 6 7 8 9 10 11 9 7 7 7 5 2 2 5 6 7 5 1 3 1 2 5 5 7 8 6 5 4 3 6 5 3 4 3 1 1 1 3 4 2 2 1 2 1 3 3 4 4 2 2 3 4 4 3 6 7 4 3 2 2 2 4 4 5 8 11 10 9 8 9 14 9 6 7 6 8 9 9 8
4 2 3 2 1 1 1 2 4 5 6 8 9 10 10 8 5 5 5 3 4 5 5 2 3 2 2 1 1 1 4 5 8 9 6 6 6 7 8 5 3 4 3 3 2 2 2 2 1 1 1 1 2 4 4 2 4 3 1 3 4 5 4 3 6 5 1 3 3 4 4 6 7 7 10 11 11 9 11 13 9 7 6 8 9 9 9 10
4 4 4 3 2 1 1 3 4 5 6 7 9 10 9 6 4 2 2 3 3 3 3 2 2 1 2 2 2 2 3 5 7 6 6 8 8 10 7 3 4 6 4 3 2 2 1 1 2 1 1 0 2 4 2 5 5 4 4 4 4 5 4 5 5 5 4 3 4 5 6 9 9 9 10 12 12 9 9 10 7 6 8 9 8 9 9 10
5 6 4 3 2 1 1 2 4 5 6 6 8 9 6 3 3 3 1 1 2 1 0 2 3 2 2 3 3 3 5 7 7 4 6 9 9 9 5 2 6 5 4 1 1 2 2 2 4 1 2 3 5 7 9 9 7 7 7 5 5 6 5 6 7 6 6 5 5 7 8 7 8 9 10 13 11 6 8 8 5 6 8 8 8 9 8 10
6 7 3 1 1 1 2 3 4 5 6 7 9 7 2 2 2 1 1 2 4 5 3 4 6 4 4 1 5 6 6 6 4 3 7 9 8 7 2 1 4 3 2 4 3 2 3 3 2 4 6 8 10 11 11 10 8 8 7 6 6 6 5 6 6 7 5 4 6 7 6 6 7 9 12 14 10 7 8 5 5 8 8 7 9 8 9 10
7 6 3 0 1 3 3 4 5 4 5 8 8 4 1 2 1 1 2 3 8 11 8 9 10 9 9 4 8 9 5 2 1 3 8 8 7 6 1 1 4 0 3 4 2 0 3 4 6 9 11 11 11 10 8 7 7 6 6 5 5 5 5 5 6 7 5 3 5 4 6 8 8 10 15 14 8 8 6 5 8 9 9 7 8 8 8 7
7 6 3 1 1 3 4 4 5 3 3 5 4 2 2 2 1 2 1 2 8 10 10 12 11 11 12 6 8 8 4 1 1 2 7 8 5 4 2 3 5 4 3 3 3 2 3 4 10 12 11 9 9 7 6 7 7 5 4 4 4 4 4 5 5 6 5 2 5 6 6 7 9 12 14 9 6 6 7 10 9 8 10 8 8 7 7 8
8 6 4 2 2 3 4 5 4 2 2 2 3 2 2 2 2 3 3 0 6 7 6 8 7 8 8 3 6 6 3 3 3 4 8 9 3 4 5 5 6 5 3 5 5 5 4 6 12 12 8 7 8 8 7 7 5 4 4 4 5 4 2 4 5 6 5 2 3 5 6 5 8 10 7 8 8 10 10 12 11 9 10 9 7 7 7 9
9 6 5 4 4 3 4 5 3 1 1 2 2 2 2 1 2 3 2 0 4 5 3 4 3 3 3 2 4 5 3 3 2 3 9 9 4 3 4 5 7 5 5 7 9 8 6 7 8 7 5 8 9 9 7 5 4 3 4 4 5 4 3 5 4 5 5 4 2 4 6 4 6 7 2 5 5 9 8 9 11 8 8 8 8 9 8 8
11 8 6 5 4 3 4 5 2 2 1 1 1 1 1 1 4 4 1 1 3 4 1 1 1 1 2 3 3 4 2 1 1 2 7 7 3 2 2 3 5 5 6 7 7 7 7 7 5 5 6 6 7 7 6 5 2 4 4 6 6 5 4 3 3 4 5 4 4 5 5 5 4 5 3 4 5 7 6 7 9 7 7 7 8 9 7 8
12 10 8 6 5 3 4 3 1 2 1 3 2 1 1 2 4 4 1 3 2 4 1 1 0 1 2 1 1 3 3 1 2 1 4 2 1 2 2 2 1 4 6 5 2 2 5 4 3 5 6 6 6 6 6 6 3 3 4 5 6 5 3 1 4 4 2 2 4 4 1 6 3 6 7 4 7 5 5 7 7 6 6 6 7 7 6 7
11 10 9 8 6 4 3 1 3 3 1 3 4 2 2 3 4 4 1 3 3 2 3 0 1 2 2 0 1 4 2 2 1 2 3 2 2 1 1 2 1 2 3 2 1 2 4 3 3 4 4 4 5 5 5 7 5 3 5 5 6 4 2 1 3 1 3 2 5 2 4 4 3 7 8 5 8 3 4 6 5 6 6 7 7 6 7 7
13 12 12 12 10 8 7 3 2 3 3 3 3 2 1 2 3 2 2 1 3 2 2 1 1 2 1 1 3 4 2 1 3 1 2 3 1 3 1 3 3 3 2 5 2 5 2 4 5 5 4 3 5 6 5 7 5 5 5 5 5 2 2 2 3 1 3 1 5 5 4 2 4 6 4 5 6 2 4 4 4 5 5 6 6 7 7 7
16 15 14 15 13 12 12 10 6 4 4 3 2 0 3 1 2 2 3 1 1 2 0 0 2 1 1 2 1 2 1 1 2 2 2 2 1 2 1 3 1 2 3 3 5 5 0 4 7 6 5 5 6 5 3 6 3 4 4 3 4 2 1 2 4 2 1 1 5 6 4 2 5 5 2 3 4 5 4 4 4 5 5 5 6 7 6 6
19 18 17 16 15 14 13 14 14 9 5 4 3 1 2 1 1 2 2 3 1 1 0 1 1 1 3 3 0 2 2 1 1 1 2 1 1 3 0 1 2 2 2 3 2 4 2 2 2 4 4 5 4 1 2 4 4 3 5 4 6 5 3 2 2 3 3 2 6 8 7 5 3 5 2 2 3 7 8 5 5 5 5 6 6 6 6 5
23 22 20 19 18 17 11 10 17 16 8 6 3 1 2 1 1 3 4 2 1 0 1 0 1 2 4 4 2 2 3 1 1 2 1 1 3 3 2 1 2 3 3 4 4 4 2 2 2 2 2 3 5 2 3 3 3 5 5 4 4 4 4 4 4 4 2 4 7 6 6 7 4 5 4 2 2 6 9 8 9 8 6 5 5 6 5 5
22 21 19 18 18 18 12 5 12 17 11 7 3 2 2 1 2 3 2 0 0 2 3 2 3 3 4 3 3 4 3 2 3 3 3 3 2 2 2 3 3 2 3 3 2 3 2 4 4 3 1 3 6 2 3 5 4 5 4 5 3 2 3 2 2 0 2 5 6 3 3 4 6 6 2 4 7 4 5 7 10 10 8 6 5 5 4 4
17 15 15 18 17 17 14 7 8 14 12 8 3 2 3 2 4 4 3 2 1 1 2 2 2 4 5 4 2 3 3 2 4 4 3 4 3 3 4 5 5 3 2 4 1 2 3 5 3 0 3 3 7 4 2 2 1 5 4 4 4 2 1 2 3 2 3 5 5 3 1 0 4 4 3 5 5 5 9 10 9 9 8 6 5 5 4 4
13 13 16 19 17 15 15 10 7 13 15 9 3 2 3 4 3 4 6 5 1 1 1 2 3 3 3 3 4 4 3 2 5 5 3 4 3 3 4 5 6 4 2 2 1 2 2 5 3 5 2 3 8 6 5 4 3 4 5 5 5 4 4 4 3 3 3 5 4 3 0 2 3 1 3 5 5 7 10 10 9 8 7 6 5 5 4 4
11 12 13 15 15 14 14 11 9 14 15 8 3 2 5 5 2 3 5 4 1 1 1 1 4 3 1 2 3 3 3 2 3 4 3 4 4 4 3 5 7 6 3 2 2 2 3 5 5 2 1 6 6 3 4 6 1 2 3 4 2 3 4 2 3 4 3 4 4 2 2 3 3 2 3 5 6 8 8 8 8 7 5 5 5 4 4 4
9 9 9 10 13 14 13 11 12 17 13 6 3 5 5 3 3 3 3 3 3 3 3 0 3 3 3 2 2 3 1 1 3 3 1 4 4 5 5 3 5 8 6 4 3 1 2 4 4 3 1 5 6 3 3 3 1 1 2 2 4 4 5 1 4 2 1 3 4 2 2 2 2 2 2 4 7 7 6 6 7 6 5 5 4 3 3 2
9 6 5 7 11 14 14 12 15 17 10 4 6 6 3 2 3 3 1 1 2 3 5 3 2 4 4 2 3 4 1 0 2 2 2 3 2 4 6 2 0 7 9 5 2 3 3 3 4 1 1 4 4 3 1 2 3 4 2 5 3 1 3 2 1 2 1 3 4 2 4 4 2 2 0 3 5 5 4 5 6 5 4 4 3 3 2 2
7 4 2 7 13 15 15 14 16 13 5 3 8 7 3 2 4 3 1 0 1 2 3 4 3 3 4 3 3 3 2 1 3 3 1 2 3 3 5 2 3 1 4 5 2 2 3 1 6 2 3 3 2 3 2 5 3 4 3 3 1 1 1 0 1 1 3 4 4 5 6 5 4 4 3 4 5 6 5 5 5 5 4 4 4 4 4 2
6 3 2 6 12 14 16 17 14 8 3 4 8 6 3 2 4 3 2 1 1 2 2 4 2 1 2 4 2 1 2 3 3 2 1 2 3 1 2 2 1 3 2 6 5 1 2 2 4 4 0 1 4 3 2 4 4 3 1 2 1 3 3 2 2 3 3 4 4 5 6 4 3 4 5 7 8 8 7 5 5 5 6 6 5 5 4 3
6 1 1 4 10 14 17 16 9 4 4 5 5 3 1 2 3 2 2 2 1 1 2 2 2 2 2 3 2 1 1 2 2 1 1 2 2 2 2 1 1 2 5 6 4 1 2 2 3 4 4 1 1 1 5 4 1 2 2 1 1 1 1 1 2 2 3 4 4 5 6 4 2 2 4 6 7 8 8 7 6 6 6 6 6 5 5 4
4 0 1 5 12 17 16 10 5 3 4 4 4 2 1 2 2 1 1 4 2 1 1 1 2 3 3 2 2 3 2 2 3 2 3 3 3 2 0 1 0 0 3 6 4 1 1 2 2 3 3 1 4 5 5 6 5 4 3 3 3 1 0 3 4 2 3 3 4 5 6 4 2 1 1 5 7 7 7 8 7 7 8 7 6 5 5 4
2 1 2 7 16 19 13 5 4 3 3 4 3 3 2 2 2 3 1 3 2 2 1 2 4 3 3 3 3 4 3 3 5 5 5 5 4 2 1 1 1 1 3 3 0 1 2 3 1 3 4 4 6 5 1 4 6 5 2 2 3 3 3 3 5 2 1 2 1 2 3 2 1 2 1 5 7 7 8 8 8 8 7 7 6 5 3 3
1 1 3 10 18 18 9 4 4 3 4 2 2 4 3 3 3 4 5 4 4 4 4 3 4 4 4 5 5 5 4 3 5 6 5 4 3 2 2 4 2 3 3 2 1 1 3 3 1 3 4 3 4 4 5 4 4 3 1 0 3 3 4 4 4 1 1 3 3 3 4 2 2 3 2 4 5 6 7 7 7 6 6 6 5 4 3 3
2 1 2 10 19 16 6 4 5 6 6 4 3 5 4 2 5 6 6 7 6 4 4 4 5 6 6 6 6 6 5 4 4 5 4 3 2 1 4 5 2 2 1 2 3 1 1 1 2 0 3 5 5 4 5 5 2 2 2 2 2 3 3 2 2 1 2 5 6 6 5 2 1 0 1 2 4 5 6 7 6 5 6 5 5 4 4 4
2 2 1 6 14 11 4 2 3 5 8 7 7 8 6 4 5 7 7 7 6 5 4 3 5 6 5 5 5 5 5 4 2 2 2 2 1 2 5 5 2 4 1 1 2 3 2 2 3 4 4 6 4 3 2 1 2 0 2 2 2 3 4 2 1 3 4 2 1 4 4 2 1 1 1 3 5 6 7 7 6 6 5 5 5 5 5 5
2 2 1 3 5 6 3 1 1 2 5 7 6 7 10 8 5 5 7 6 6 6 4 3 4 5 4 5 5 4 5 4 3 2 2 3 1 2 2 3 3 3 2 1 3 4 3 1 2 5 7 7 5 5 4 3 1 3 5 5 6 5 5 4 3 4 3 1 3 7 6 5 7 6 5 5 6 7 8 7 6 6 5 5 5 5 5 5
1 2 3 4 3 4 5 3 3 2 2 5 5 5 10 11 7 4 6 6 6 6 3 2 4 5 5 6 5 3 4 3 3 4 3 3 2 1 1 2 4 2 1 2 3 4 4 1 3 6 6 7 5 5 3 1 2 6 7 8 9 7 5 6 5 4 2 2 7 11 7 5 9 10 6 6 7 7 8 7 7 7 6 6 5 5 6 6
2 1 2 2 1 5 7 7 7 7 6 5 3 2 6 10 10 7 5 3 3 5 4 3 5 7 6 6 5 4 4 3 3 4 3 3 3 1 2 3 2 3 4 3 3 4 5 3 4 4 5 7 5 4 4 3 3 5 7 9 11 11 8 7 7 7 6 7 10 12 10 9 11 11 7 6 7 7 8 7 5 6 6 6 6 6 6 6
2 1 2 1 0 3 7 8 10 11 11 7 4 3 3 6 9 7 3 2 2 3 5 5 6 7 7 7 6 4 5 5 4 3 2 3 3 3 1 1 2 3 5 3 2 3 4 2 2 3 4 7 6 4 3 4 5 7 10 12 14 14 12 8 9 10 10 11 13 12 13 14 12 7 6 6 6 6 4 2 4 7 7 6 6 6 6 6
2 1 1 2 1 2 2 5 9 10 9 8 7 6 3 3 6 4 2 4 4 3 5 8 7 5 6 8 7 5 6 7 6 4 4 4 2 2 2 2 1 2 4 2 1 2 2 1 1 2 0 6 4 1 2 5 6 7 11 14 14 12 11 11 10 9 8 10 12 10 10 12 7 3 4 4 3 5 4 5 6 6 7 7 6 6 6 5
2 1 2 2 2 2 1 3 7 7 6 7 9 7 5 6 7 3 0 2 4 3 5 9 8 3 2 5 7 7 6 6 7 6 6 6 4 3 2 2 3 3 1 1 0 1 1 1 1 4 1 6 3 3 4 6 4 7 13 17 15 11 10 10 8 7 9 10 9 7 8 9 5 2 3 1 4 5 5 5 5 4 6 7 6 6 6 5
3 2 3 3 1 2 2 2 5 6 6 6 8 8 7 7 6 5 2 2 3 1 3 7 10 5 3 5 6 6 6 7 7 6 5 5 3 3 3 2 5 5 4 3 1 0 3 3 1 3 2 5 2 4 4 2 4 7 12 13 14 12 11 10 9 10 11 8 6 7 8 8 5 4 5 2 4 5 5 5 4 5 5 6 6 6 6 6
Wind_Direction
343 344 337 333 322 311 303 295 298 299 301 300 302 311 316 319 318 320 324 326 327 327 329 330 336 339 337 338 334 331 329 325 323 314 284 292 297 269 289 314 326 292 184 165 154 150 149 177 220 182 124 23 59 123 325 280 77 59 82 109 236 223 215 211 226 300 241 271 293 278 107 97 346 317 332 317 318 283 287 282 254 261 263 252 261 269 230 183
327 332 332 335 332 335 334 322 317 312 312 312 314 316 315 314 311 315 318 322 324 323 326 327 333 337 337 339 334 333 330 325 322 306 292 308 300 250 274 306 316 225 179 169 173 177 165 207 219 171 103 29 280 44 347 292 92 101 133 155 226 213 227 245 274 318 338 282 299 318 19 55 318 284 326 278 284 295 290 285 285 280 272 268 275 275 192 188
323 326 324 325 323 331 336 334 334 325 326 323 322 323 319 315 312 315 316 319 321 320 323 323 329 334 337 337 335 338 330 328 326 304 332 60 118 202 243 298 347 166 180 171 182 206 205 249 209 168 107 337 254 98 82 297 237 173 142 186 241 226 257 287 295 310 314 285 324 329 344 350 293 277 342 262 278 285 264 267 286 283 270 266 282 246 181 191
327 328 324 324 319 324 325 326 327 323 327 325 324 323 317 313 312 314 315 319 319 319 322 323 330 334 339 340 339 338 334 341 333 286 78 98 122 141 138 81 54 146 170 166 190 227 250 291 204 162 123 260 282 83 149 225 207 183 146 192 235 230 265 277 289 305 314 344 356 313 330 323 288 285 295 273 285 280 254 242 243 266 271 256 268 274 187 187
330 331 326 320 318 327 330 323 317 314 316 319 323 321 320 318 315 316 317 320 320 321 323 323 329 334 343 344 339 339 352 17 290 239 126 116 125 134 105 67 50 160 171 173 202 215 261 309 53 93 86 242 306 42 221 217 169 188 202 207 226 233 267 274 291 307 312 334 336 323 318 298 301 311 267 254 270 263 252 241 231 248 266 260 262 279 234 196
338 338 330 323 328 336 335 332 323 320 319 323 328 325 326 323 319 320 320 320 319 318 318 320 323 330 342 343 337 344 20 32 259 252 199 175 140 135 50 45 42 166 175 179 206 194 259 331 48 62 98 223 252 218 246 235 154 212 258 229 229 234 247 271 296 305 310 309 298 294 279 278 329 302 254 215 251 257 255 248 248 251 260 268 268 272 264 245
338 338 334 331 340 336 332 334 330 328 329 330 331 328 327 325 324 321 320 318 316 314 314 317 317 320 333 335 322 6 75 242 266 279 260 230 193 278 329 309 252 178 183 176 198 201 168 67 76 185 159 272 231 216 257 291 166 205 265 254 243 246 251 283 303 307 309 280 262 282 302 296 282 286 287 249 258 264 265 255 257 263 267 276 278 260 257 259
321 325 326 329 327 321 320 320 323 327 329 329 327 327 325 323 321 317 316 314 311 311 311 315 316 320 335 332 285 1 345 249 263 275 256 227 230 277 290 287 207 188 189 188 208 200 147 183 225 204 220 263 243 248 291 341 289 224 256 260 272 286 285 302 305 301 302 280 271 296 296 270 240 265 296 274 273 274 271 266 261 269 278 279 275 266 256 254
310 306 303 316 314 310 314 313 325 328 327 326 324 324 322 319 316 314 313 310 309 308 309 315 311 307 303 112 90 6 269 246 258 259 240 225 235 249 238 239 191 194 192 204 225 230 181 206 227 204 191 246 288 300 325 14 287 267 317 318 328 310 295 307 307 294 291 282 273 280 281 271 238 265 282 263 266 274 280 284 271 275 282 275 267 263 257 254
303 296 296 306 305 303 315 323 333 331 327 324 322 323 321 318 314 312 309 307 307 305 309 311 297 266 216 158 95 269 260 250 262 249 223 210 203 186 189 182 180 199 199 217 243 249 222 207 233 187 171 261 316 305 337 37 253 316 3 336 317 307 300 305 301 287 282 275 260 245 267 273 235 206 270 261 259 274 297 297 284 279 273 273 266 259 263 261
297 293 299 308 304 303 352 347 341 339 333 329 326 324 321 318 314 311 308 305 303 302 304 299 273 221 182 147 136 219 253 249 257 242 180 154 148 152 175 180 185 201 205 230 267 295 105 148 59 115 173 324 335 316 320 277 286 339 4 336 313 319 311 293 283 278 277 274 243 205 250 279 252 185 248 263 268 284 302 295 292 285 268 271 273 278 290 279
292 289 301 314 317 41 39 1 352 349 340 336 330 325 322 319 315 312 310 308 305 302 300 287 223 190 161 131 206 228 231 227 230 190 148 154 160 180 188 190 193 203 211 219 68 55 68 89 76 99 231 10 352 319 296 270 340 329 353 336 304 330 312 282 271 264 261 260 211 161 247 292 252 226 242 257 273 293 299 288 289 284 272 277 292 307 312 328
285 284 302 316 50 52 35 7 357 355 348 343 333 328 325 321 320 317 315 314 309 304 303 262 189 176 155 190 238 231 231 231 231 229 220 226 250 239 204 194 189 200 213 205 119 69 58 64 91 135 225 76 286 281 267 354 5 319 337 357 292 341 305 275 264 258 264 253 179 145 216 278 248 252 253 260 276 290 291 283 281 283 289 307 316 317 345 24
274 281 306 330 83 45 24 9 358 355 348 339 334 330 327 325 322 318 317 315 310 307 300 169 168 161 149 250 257 241 234 233 239 244 239 229 219 200 204 205 201 203 213 203 143 72 50 51 74 87 269 135 234 309 354 351 344 300 319 117 275 304 278 281 282 285 292 274 166 150 204 259 254 267 269 272 278 276 286 285 281 292 316 324 323 342 34 46
267 279 269 153 109 55 16 5 353 348 342 336 333 329 326 324 320 318 319 316 314 303 186 152 161 149 84 277 268 242 218 216 221 218 209 196 180 171 195 202 205 202 212 211 158 67 51 60 70 82 288 279 252 3 356 338 319 281 287 312 283 200 263 295 294 286 251 270 58 144 212 261 258 268 272 277 284 288 293 283 287 320 329 330 359 34 56 50
264 244 142 131 118 90 3 356 352 342 339 337 330 328 326 319 318 323 324 333 358 108 123 140 163 151 3 277 223 166 190 190 195 193 184 185 183 159 149 149 164 173 186 199 151 116 84 81 79 135 239 305 132 102 39 356 323 302 195 241 258 229 269 300 300 299 156 133 354 211 234 271 264 265 268 277 287 298 293 282 302 350 338 13 52 55 57 45
253 177 128 116 141 150 3 360 358 346 340 335 327 327 324 311 308 328 349 37 91 109 98 104 166 167 287 236 142 213 195 185 187 187 186 187 180 155 142 131 135 143 120 85 105 121 90 95 150 149 117 275 151 104 48 329 284 300 250 224 247 243 247 285 300 310 106 137 257 252 236 248 262 273 280 285 286 290 285 285 320 5 27 64 71 62 57 50
225 170 137 127 140 94 34 13 5 349 336 330 326 324 320 305 274 276 12 74 102 89 46 17 114 118 277 220 203 197 160 167 173 180 191 180 168 163 160 142 132 122 92 50 43 94 60 32 94 86 324 278 139 126 180 233 222 239 250 251 267 252 244 269 278 283 285 263 265 278 263 258 270 278 280 277 273 274 275 288 332 28 71 80 73 66 62 55
207 171 139 113 100 61 29 16 1 344 327 323 327 322 324 325 271 245 251 113 108 115 226 209 164 161 248 222 189 142 122 148 153 158 180 169 167 174 180 141 125 113 93 52 307 150 128 58 71 116 232 222 205 193 207 220 214 222 239 244 254 260 260 262 261 265 281 290 282 274 270 271 278 279 279 275 271 269 276 299 4 69 86 83 74 71 65 58
194 171 141 78 74 5 350 353 348 342 328 325 333 331 346 34 352 306 258 200 211 227 221 204 201 232 282 218 141 139 133 145 154 168 169 164 163 162 167 93 94 70 120 151 209 204 135 122 161 197 207 217 220 216 219 227 228 233 251 258 254 262 271 269 273 279 300 309 265 261 287 298 292 290 283 282 294 305 296 325 67 88 79 72 75 71 66 65
191 177 172 269 343 345 341 337 339 347 334 329 338 347 114 131 63 293 276 266 246 241 246 242 225 237 256 210 155 162 152 137 191 180 172 165 151 147 173 110 107 248 226 160 155 148 121 162 217 216 211 221 229 226 229 240 245 243 245 260 270 264 265 273 277 284 320 335 265 296 337 312 299 289 281 289 323 333 335 71 88 86 79 71 71 66 65 68
195 182 189 231 312 328 330 335 339 350 348 342 358 43 117 133 143 185 205 301 275 249 242 251 245 245 251 223 171 170 146 153 237 225 188 163 147 173 186 128 143 209 217 132 104 124 149 217 237 227 216 229 250 250 246 252 257 264 271 285 285 273 282 292 294 312 354 358 280 314 324 297 287 280 291 321 38 38 42 80 83 78 81 69 63 63 61 62
197 189 199 248 276 298 326 336 330 355 43 32 48 87 128 134 151 168 151 307 289 264 231 242 244 241 243 203 162 156 142 200 217 240 193 160 150 198 172 156 176 204 201 166 159 162 181 233 238 233 219 226 254 261 257 265 274 274 273 281 280 286 311 290 303 331 338 286 265 306 310 299 281 282 338 30 78 79 60 72 74 73 81 74 69 65 56 59
203 203 208 236 265 282 334 336 324 53 68 66 67 92 130 158 191 174 143 157 281 274 235 225 219 204 203 153 150 147 150 202 198 215 185 165 158 170 174 179 178 195 216 197 183 185 212 229 225 226 208 203 233 258 258 261 286 269 225 219 253 270 249 239 274 321 324 317 341 10 342 310 267 271 56 66 67 74 66 71 72 66 76 81 75 64 54 57
213 217 214 220 249 280 325 333 350 116 139 170 86 50 112 221 214 184 136 26 287 290 267 177 66 97 124 109 140 152 138 186 262 199 172 170 170 150 195 195 171 205 227 214 199 206 238 244 227 242 242 202 208 247 241 210 265 299 238 210 212 210 209 234 326 358 14 341 332 40 9 293 287 291 218 135 63 59 59 65 75 69 67 72 68 62 54 51
222 220 219 217 231 273 312 326 165 153 208 214 234 336 200 234 211 189 102 45 296 279 177 139 52 153 151 102 133 114 100 250 287 90 125 140 240 146 192 237 169 208 217 217 216 215 233 234 186 210 230 201 193 241 231 178 150 301 250 189 162 143 130 53 19 23 51 259 291 62 109 267 310 295 261 137 90 73 68 63 70 69 59 63 63 61 53 46
225 227 230 229 229 239 267 231 187 203 231 219 225 237 248 251 219 205 77 23 288 224 123 307 347 133 159 200 84 101 135 228 19 27 70 57 330 76 159 242 184 212 215 118 49 253 205 164 115 144 166 171 190 242 229 155 135 249 239 142 110 86 74 66 72 69 227 248 315 324 189 255 277 256 257 122 102 88 82 72 65 69 64 65 63 55 52 46
223 232 239 238 231 230 234 234 225 220 206 197 196 209 300 266 222 191 78 352 279 119 109 279 90 94 116 87 76 104 183 190 109 294 358 57 7 51 78 236 186 242 262 117 170 267 193 162 196 166 139 167 201 234 209 138 140 236 222 135 98 106 165 164 123 201 260 17 314 276 185 241 265 258 266 120 134 182 138 117 94 89 79 74 68 55 49 46
230 231 241 242 236 236 238 238 239 219 204 193 184 258 4 301 218 80 89 214 294 74 20 63 117 99 78 85 49 124 148 37 135 230 359 77 107 76 158 227 167 273 285 132 190 256 262 188 200 151 143 204 218 241 190 142 180 221 173 104 45 53 148 134 137 154 7 39 258 248 180 191 266 283 308 121 179 202 164 137 117 103 87 76 68 59 45 41
240 236 242 242 233 228 225 229 231 220 211 218 212 359 10 317 168 113 192 217 54 85 157 72 140 150 110 107 292 190 144 85 124 72 20 75 45 32 140 216 80 70 347 357 265 249 286 287 213 151 179 198 178 169 84 132 168 126 88 52 18 5 23 52 105 102 60 295 251 233 199 187 268 291 231 192 208 171 153 150 140 111 83 72 60 58 45 38
242 239 238 235 229 219 205 218 225 217 221 231 208 76 51 40 116 184 213 203 63 204 129 98 198 127 132 140 160 179 143 134 143 99 76 84 46 22 17 18 39 49 13 337 305 280 315 326 252 236 215 141 112 85 15 36 98 96 77 65 31 340 7 30 8 48 97 252 261 243 199 178 216 264 233 286 323 148 148 159 151 123 92 77 62 59 47 41
235 234 229 224 222 211 195 207 215 207 215 219 188 101 94 109 218 204 222 43 184 206 161 183 197 162 169 162 161 179 157 166 186 150 149 147 130 181 188 179 161 43 329 266 288 313 262 232 245 293 290 141 116 84 343 358 40 88 93 86 73 334 358 12 311 62 200 245 248 214 143 164 219 251 264 26 12 40 100 122 131 120 106 95 76 69 52 45
220 216 205 202 201 197 196 205 195 189 191 184 162 69 100 197 221 175 188 222 203 175 133 124 154 153 150 151 196 192 155 180 186 174 173 147 155 232 247 224 179 154 244 213 270 334 304 296 270 237 301 173 141 153 229 281 143 138 140 131 131 146 170 255 256 247 261 264 244 210 98 262 247 281 12 51 43 52 80 93 106 109 110 109 96 86 65 52
197 191 184 188 191 194 201 207 185 172 168 157 121 76 152 213 214 160 197 224 210 83 87 100 125 122 129 171 216 180 153 218 181 165 170 142 152 237 258 246 211 183 176 175 264 196 222 304 240 182 252 176 166 187 174 144 156 177 163 142 145 158 172 214 226 217 256 276 274 270 269 206 212 323 47 76 74 73 84 92 95 95 100 102 91 78 64 56
186 184 183 188 194 197 199 203 186 165 158 145 117 172 198 212 182 163 206 224 204 112 37 41 116 123 212 246 244 199 171 223 178 146 169 168 173 203 208 221 207 185 141 152 242 186 181 259 252 218 172 157 175 225 142 109 98 221 137 110 166 191 167 195 232 203 210 284 285 263 238 207 156 81 63 84 77 73 80 86 90 89 86 89 84 73 65 57
179 182 185 191 200 201 195 193 176 163 156 141 170 213 217 206 172 181 209 207 191 145 128 42 97 142 231 268 260 239 178 181 163 127 210 207 197 210 213 220 193 180 167 166 212 196 172 259 279 11 24 177 183 210 156 122 181 208 107 179 221 180 135 148 276 261 130 256 259 218 247 279 92 77 57 80 78 75 79 82 91 96 92 93 95 95 96 88
161 168 189 202 207 203 195 187 169 163 161 161 204 220 207 195 203 201 217 200 183 121 135 186 185 173 206 229 230 221 161 58 162 150 228 229 223 214 203 236 208 184 186 176 210 206 164 265 276 151 197 241 193 151 30 41 121 132 166 223 230 69 83 110 263 317 329 249 264 254 247 251 211 229 204 103 102 100 105 104 105 107 108 116 133 153 177 176
139 126 221 232 218 204 196 189 171 162 163 190 218 228 190 193 229 210 207 183 136 94 147 201 207 173 176 187 220 203 152 168 176 172 213 224 235 216 176 176 5 253 188 144 146 232 125 283 286 248 183 271 9 84 346 339 47 128 183 226 123 84 310 358 152 232 252 251 275 279 261 248 218 204 174 175 169 147 140 132 132 142 149 160 172 195 215 204
118 97 296 235 214 205 196 189 174 165 193 205 218 232 193 203 243 213 189 175 99 115 182 216 200 146 156 158 175 164 142 175 180 173 172 209 242 325 92 138 44 348 7 108 136 239 99 127 282 303 269 308 21 65 207 277 342 36 30 341 49 158 191 215 189 180 212 241 261 270 268 264 234 191 179 199 186 158 153 152 161 175 181 190 192 194 206 193
112 98 292 175 185 194 188 182 177 180 213 212 208 208 157 210 252 240 169 138 117 139 195 223 174 165 175 157 165 160 143 192 178 167 228 239 285 351 41 34 69 353 6 63 100 59 68 141 230 304 337 35 28 192 179 188 203 48 30 314 282 221 193 257 244 166 165 217 245 257 260 260 252 222 197 192 167 152 158 159 173 198 199 204 204 193 194 188
106 79 253 163 173 177 171 176 197 195 215 226 204 183 171 181 215 280 56 88 96 202 173 201 204 189 178 183 189 161 158 187 175 193 223 229 274 285 144 3 320 269 23 45 55 57 117 157 186 275 315 196 226 225 170 153 150 138 162 200 188 158 166 274 267 218 171 205 215 235 260 270 261 265 161 137 138 152 167 163 175 205 206 206 212 204 195 180
103 166 176 165 172 168 161 191 219 188 225 227 198 201 192 145 166 209 168 104 135 191 168 213 224 204 194 216 210 175 174 196 191 202 216 217 231 228 194 306 291 114 90 88 43 182 125 106 125 249 247 219 238 250 168 141 147 144 175 200 160 148 152 212 249 246 223 237 200 210 254 272 255 250 153 132 151 166 174 174 181 201 210 209 210 207 194 182
159 173 139 161 172 168 166 211 206 202 239 209 175 215 194 153 187 193 179 178 185 175 177 205 208 207 217 215 210 200 195 206 209 206 208 212 210 205 303 315 356 58 79 121 222 3 84 89 99 271 287 301 301 323 8 46 117 141 307 43 142 164 169 193 221 219 222 238 252 271 255 225 219 236 166 144 163 171 183 193 192 199 211 212 208 205 197 198
173 154 114 168 181 183 189 208 191 207 226 213 219 229 217 196 198 191 187 194 190 170 178 201 197 206 218 206 204 210 199 206 243 226 193 180 171 97 336 333 43 86 73 172 178 155 97 124 124 156 301 317 332 343 355 7 53 138 247 254 173 164 163 169 181 181 227 222 225 249 255 235 204 220 93 144 174 193 215 216 206 208 214 211 202 198 196 195
161 154 61 174 189 201 222 205 183 206 215 218 231 231 233 241 205 190 190 193 190 174 173 205 198 191 198 192 197 213 203 193 225 239 155 119 84 12 349 343 68 118 181 204 141 123 140 168 134 138 216 245 257 242 227 337 6 292 256 271 235 176 177 189 214 235 244 225 201 242 250 270 275 204 210 229 209 216 238 236 227 226 215 200 190 186 187 184
151 182 167 151 190 220 249 254 178 196 203 208 224 227 225 233 230 191 185 197 206 185 178 209 189 176 191 188 182 208 219 192 170 187 131 117 196 295 319 355 55 108 167 112 66 86 111 189 170 164 200 223 221 210 179 113 86 268 277 280 269 243 203 202 233 235 233 339 284 256 245 261 273 255 215 217 222 228 239 233 223 222 200 184 183 182 179 181
181 200 175 156 179 215 228 237 206 190 198 198 208 221 215 217 228 217 197 206 199 173 178 236 190 184 199 181 171 206 217 188 178 190 167 136 142 309 335 56 52 42 93 66 36 82 103 272 230 182 213 238 229 231 245 102 199 234 253 264 264 256 210 195 218 218 199 268 265 260 251 243 263 265 234 205 216 231 243 236 218 204 183 173 176 175 177 186
207 207 191 179 175 201 209 211 202 209 223 218 224 256 217 204 205 209 205 206 184 166 178 227 207 194 186 168 170 199 193 191 215 200 161 128 126 90 6 23 14 9 49 39 5 87 116 247 240 175 227 256 252 263 288 296 251 236 248 259 263 259 238 220 226 218 211 238 257 265 267 257 259 267 258 227 214 221 242 248 213 175 165 162 160 165 179 194
212 257 278 312 25 217 211 194 192 211 220 219 239 260 218 197 205 206 170 134 222 214 193 211 215 195 184 172 162 177 187 187 217 221 159 121 129 142 111 357 323 15 63 64 346 75 111 247 245 169 231 263 263 262 279 280 269 266 264 259 259 262 258 248 241 230 220 234 249 260 266 266 265 258 247 238 210 194 203 185 132 142 157 161 162 173 193 211
197 211 277 345 334 264 231 183 184 206 219 215 229 236 199 197 218 215 155 164 198 225 202 203 205 185 189 188 171 192 208 173 169 194 164 139 153 164 162 196 209 45 58 85 320 9 84 191 228 112 248 282 280 158 219 254 256 266 272 265 260 267 270 260 251 243 236 241 248 255 262 266 268 235 226 228 162 135 133 138 146 157 164 162 171 190 205 217
241 186 125 64 321 232 190 181 177 193 215 214 222 225 208 218 216 182 244 213 166 182 209 193 179 134 146 188 182 201 204 149 145 165 152 148 172 175 169 187 152 119 95 145 127 13 83 167 328 79 85 281 296 118 218 269 300 285 272 264 258 256 258 257 247 233 235 241 249 252 252 259 268 267 256 206 113 119 131 137 141 159 167 164 173 193 204 208
244 251 145 117 318 241 189 170 173 192 212 207 214 222 215 219 206 169 215 319 73 35 250 177 161 132 120 176 186 187 169 137 133 141 126 114 115 108 110 139 139 135 149 160 153 121 128 135 149 118 163 269 282 142 195 288 343 285 262 253 251 248 249 256 255 243 239 235 236 239 243 251 254 246 245 213 126 129 140 140 144 161 177 182 181 188 198 200